Weather History for KPRG - November, 2013

Change the Weather History Date:

Saturday, November 9, 2013

  Actual Average (KHUF) Record (KHUF)
Temperature  
Mean Temperature 52 °F 46 °F  
Max Temperature 63 °F 56 °F 73 °F (1975)
Min Temperature 42 °F 36 °F 11 °F (1991)
Degree Days  
Heating Degree Days 12 19  
Month to date heating degree days 156  
Since 1 July heating degree days 583  
Cooling Degree Days 0 0  
Month to date cooling degree days 0  
Year to date cooling degree days 993  
Growing Degree Days 2 (Base 50)    
Moisture  
Dew Point 37 °F    
Average Humidity 60    
Maximum Humidity 74    
Minimum Humidity 42    
Precipitation  
Precipitation 0.00 in 0.11 in 1.11 in (2000)
Month to date precipitation 1.14  
Year to date precipitation 39.41  
Sea Level Pressure  
Sea Level Pressure 30.08 in    
Wind  
Wind Speed 17 mph (SW)    
Max Wind Speed 22 mph    
Max Gust Speed 29 mph    
Visibility 10 miles    
Events      
T = Trace of Precipitation, MM = Missing Value Source: NWS Daily Summary

Daily Weather History Graph

Daily Weather History Graph

Search for Another Location

Airport or City:

Trip Planner

Search our weather history database for the weather conditions in past years. The results will help you decide how hot, cold, wet, or windy it might be!

Date:

Astronomy

Nov. 09, 2013 Rise Set
Actual Time 6:28 AM CST 4:39 PM CST
Civil Twilight 6:00 AM CST 5:08 PM CST
Nautical Twilight 5:27 AM CST 5:40 PM CST
Astronomical Twilight 4:56 AM CST 6:12 PM CST
Moon 12:05 PM CST (11/9) 11:09 PM CST (11/9)
Length of Visible Light 11h 08m
Length of Day
10h 11m
Waxing Crescent, 44% of the Moon is Illuminated
Nov 9
Waxing Crescent
Nov 9
First Quarter
Nov 17
Full
Nov 25
Last Quarter
Dec 2
New

Hourly Weather History & Observations

Time (CST) Temp. Windchill Dew Point Humidity Pressure Visibility Wind Dir Wind Speed Gust Speed Precip Events Conditions
12:15 AM 43.7 °F 35.2 °F 31.3 °F 62% 30.11 in 10.0 mi South 20.7 mph 25.3 mph N/A   Mostly Cloudy
12:35 AM 43.2 °F 34.7 °F 31.1 °F 62% 30.10 in 10.0 mi South 19.6 mph - N/A   Scattered Clouds
12:55 AM 43.0 °F 35.1 °F 31.1 °F 63% 30.10 in 10.0 mi South 17.3 mph 26.5 mph N/A   Scattered Clouds
1:15 AM 42.6 °F 35.2 °F 31.3 °F 64% 30.11 in 10.0 mi South 15.0 mph - N/A   Scattered Clouds
1:35 AM 42.8 °F 35.4 °F 31.5 °F 64% 30.10 in 10.0 mi South 15.0 mph - N/A   Scattered Clouds
1:55 AM 43.7 °F 36.0 °F 31.6 °F 63% 30.10 in 10.0 mi South 17.3 mph 23.0 mph N/A   Scattered Clouds
2:15 AM 43.3 °F 35.5 °F 32.0 °F 64% 30.10 in 10.0 mi South 17.3 mph 21.9 mph N/A   Clear
2:35 AM 43.2 °F 35.6 °F 32.0 °F 65% 30.10 in 10.0 mi South 16.1 mph 24.2 mph N/A   Clear
2:55 AM 43.3 °F 35.5 °F 32.0 °F 64% 30.08 in 10.0 mi South 17.3 mph 24.2 mph N/A   Clear
3:15 AM 42.8 °F 35.1 °F 32.0 °F 66% 30.08 in 10.0 mi South 16.1 mph - N/A   Clear
3:35 AM 43.0 °F 34.8 °F 32.0 °F 65% 30.08 in 10.0 mi South 18.4 mph 23.0 mph N/A   Clear
3:55 AM 42.8 °F 34.8 °F 32.0 °F 66% 30.07 in 10.0 mi South 17.3 mph 21.9 mph N/A   Clear
4:15 AM 42.6 °F 34.6 °F 32.4 °F 67% 30.07 in 10.0 mi SSW 17.3 mph 21.9 mph N/A   Clear
4:35 AM 42.8 °F 34.5 °F 32.9 °F 68% 30.07 in 10.0 mi SSW 18.4 mph 24.2 mph N/A   Clear
4:55 AM 42.8 °F 34.5 °F 33.1 °F 69% 30.06 in 10.0 mi SSW 18.4 mph - N/A   Clear
5:15 AM 42.6 °F 34.6 °F 33.4 °F 70% 30.06 in 10.0 mi SSW 17.3 mph 21.9 mph N/A   Clear
5:35 AM 42.6 °F 34.9 °F 34.0 °F 71% 30.06 in 10.0 mi SSW 16.1 mph - N/A   Clear
5:55 AM 42.6 °F 34.6 °F 34.2 °F 72% 30.06 in 10.0 mi SSW 17.3 mph - N/A   Clear
6:15 AM 42.8 °F 35.4 °F 34.3 °F 72% 30.06 in 10.0 mi SSW 15.0 mph - N/A   Clear
6:35 AM 42.8 °F 35.1 °F 34.9 °F 74% 30.06 in 10.0 mi SSW 16.1 mph - N/A   Clear
6:55 AM 43.5 °F 36.4 °F 35.6 °F 74% 30.07 in 10.0 mi SSW 15.0 mph - N/A   Clear
7:15 AM 44.8 °F 37.7 °F 36.3 °F 72% 30.07 in 10.0 mi SSW 16.1 mph 20.7 mph N/A   Clear
7:35 AM 46.4 °F 39.5 °F 36.9 °F 69% 30.07 in 10.0 mi SSW 17.3 mph 23.0 mph N/A   Clear
7:55 AM 47.8 °F - 37.4 °F 67% 30.07 in 10.0 mi SW 17.3 mph 23.0 mph N/A   Clear
8:15 AM 49.5 °F - 37.9 °F 65% 30.07 in 10.0 mi SW 19.6 mph - N/A   Clear
8:35 AM 51.1 °F - 38.5 °F 62% 30.08 in 10.0 mi SW 19.6 mph 25.3 mph N/A   Clear
8:55 AM 52.2 °F - 38.3 °F 59% 30.07 in 10.0 mi SW 18.4 mph 24.2 mph N/A   Clear
9:15 AM 53.1 °F - 38.8 °F 59% 30.07 in 10.0 mi SW 20.7 mph 26.5 mph N/A   Clear
9:35 AM 54.3 °F - 39.4 °F 57% 30.07 in 10.0 mi SW 20.7 mph 26.5 mph N/A   Clear
9:55 AM 55.9 °F - 39.7 °F 55% 30.07 in 10.0 mi SW 16.1 mph 27.6 mph N/A   Clear
10:15 AM 57.2 °F - 39.9 °F 52% 30.07 in 10.0 mi WSW 20.7 mph 28.8 mph N/A   Clear
10:35 AM 57.7 °F - 40.3 °F 52% 30.07 in 10.0 mi SW 19.6 mph 27.6 mph N/A   Clear
10:55 AM 59.0 °F - 40.5 °F 50% 30.06 in 10.0 mi SW 19.6 mph 26.5 mph N/A   Clear
11:15 AM 59.7 °F - 40.3 °F 49% 30.06 in 10.0 mi SW 20.7 mph 27.6 mph N/A   Clear
11:35 AM 60.1 °F - 40.3 °F 48% 30.06 in 10.0 mi SW 17.3 mph 24.2 mph N/A   Clear
11:55 AM 60.8 °F - 40.8 °F 48% 30.05 in 10.0 mi SW 19.6 mph 26.5 mph N/A   Clear
12:15 PM 61.2 °F - 40.5 °F 47% 30.05 in 10.0 mi SW 13.8 mph - N/A   Clear
12:35 PM 61.2 °F - 41.0 °F 47% 30.04 in 10.0 mi SW 18.4 mph 26.5 mph N/A   Clear
12:55 PM 61.7 °F - 40.5 °F 46% 30.03 in 10.0 mi SW 21.9 mph 25.3 mph N/A   Clear
1:15 PM 62.1 °F - 41.0 °F 46% 30.03 in 10.0 mi SW 18.4 mph 25.3 mph N/A   Clear
1:35 PM 62.6 °F - 40.5 °F 44% 30.02 in 10.0 mi SW 17.3 mph - N/A   Clear
1:55 PM 62.8 °F - 40.5 °F 44% 30.03 in 10.0 mi SW 16.1 mph - N/A   Clear
2:15 PM 63.0 °F - 41.0 °F 45% 30.03 in 10.0 mi SW 19.6 mph - N/A   Clear
2:35 PM 63.0 °F - 40.1 °F 43% 30.04 in 10.0 mi SW 15.0 mph 27.6 mph N/A   Clear
2:55 PM 63.1 °F - 40.5 °F 43% 30.04 in 10.0 mi WSW 17.3 mph 20.7 mph N/A   Clear
3:15 PM 63.0 °F - 40.5 °F 44% 30.04 in 10.0 mi WSW 15.0 mph - N/A   Clear
3:35 PM 62.6 °F - 38.8 °F 42% 30.05 in 10.0 mi West 12.7 mph 24.2 mph N/A   Clear
3:55 PM 61.5 °F - 39.4 °F 44% 30.05 in 10.0 mi West 13.8 mph 20.7 mph N/A   Clear
4:15 PM 59.9 °F - 40.1 °F 48% 30.05 in 10.0 mi WSW 12.7 mph 17.3 mph N/A   Clear
4:35 PM 58.5 °F - 40.1 °F 51% 30.06 in 10.0 mi West 8.1 mph - N/A   Clear
4:55 PM 56.3 °F - 40.3 °F 55% 30.07 in 10.0 mi WSW 10.4 mph - N/A   Clear
5:15 PM 54.7 °F - 40.5 °F 59% 30.07 in 10.0 mi WSW 9.2 mph - N/A   Clear
5:35 PM 53.1 °F - 40.5 °F 62% 30.08 in 10.0 mi WSW 9.2 mph - N/A   Clear
5:55 PM 52.0 °F - 40.5 °F 65% 30.09 in 10.0 mi WSW 9.2 mph - N/A   Clear
6:15 PM 52.2 °F - 40.5 °F 64% 30.10 in 10.0 mi West 10.4 mph - N/A   Clear
6:35 PM 50.9 °F - 40.1 °F 67% 30.10 in 10.0 mi WSW 9.2 mph - N/A   Clear
6:55 PM 52.0 °F - 40.1 °F 64% 30.11 in 10.0 mi WSW 10.4 mph - N/A   Clear
7:15 PM 52.3 °F - 39.6 °F 62% 30.12 in 10.0 mi West 10.4 mph - N/A   Clear
7:35 PM 51.3 °F - 39.2 °F 63% 30.12 in 10.0 mi West 10.4 mph - N/A   Clear
8:35 PM 50.0 °F - 37.8 °F 63% 30.14 in 10.0 mi West 12.7 mph - N/A   Clear
8:55 PM 49.3 °F - 37.4 °F 64% 30.14 in 10.0 mi WSW 11.5 mph - N/A   Clear
9:15 PM 49.1 °F - 36.9 °F 63% 30.15 in 10.0 mi WSW 10.4 mph - N/A   Clear
9:35 PM 49.3 °F - 36.9 °F 62% 30.15 in 10.0 mi WSW 11.5 mph - N/A   Clear
9:55 PM 48.2 °F - 36.5 °F 64% 30.16 in 10.0 mi West 9.2 mph - N/A   Clear
10:15 PM 47.5 °F - 36.5 °F 66% 30.17 in 10.0 mi West 11.5 mph - N/A   Clear
10:35 PM 47.5 °F - 36.5 °F 66% 30.17 in 10.0 mi West 11.5 mph - N/A   Clear
10:55 PM 46.4 °F 41.1 °F 36.0 °F 67% 30.17 in 10.0 mi West 11.5 mph - N/A   Clear
11:15 PM 45.3 °F 39.7 °F 36.0 °F 70% 30.17 in 10.0 mi West 11.5 mph - N/A   Clear
11:35 PM 45.3 °F 39.7 °F 35.8 °F 69% 30.18 in 10.0 mi West 11.5 mph - N/A   Clear
11:55 PM 44.2 °F 38.4 °F 35.6 °F 72% 30.18 in 10.0 mi West 11.5 mph - N/A   Clear